KAITUO 1A (40904 NORAD) Tracking and Keplerian Element Data

This shows tracking and keplerian element data for the satellite.

Feedback or suggestion? Click here.




ElementValue
Catalog40904
NameKAITUO 1A
Epoch Orbit39665
Epoch Day325.20092169
Epoch Year2022
RAAN326.4154
Inclination97.4994
Eccentricity0.001282
Argument of Perigee175.5877
Mean Anonmoly314.968
Mean Motion15.19720895
Decay Rate7.655E-05
L11 40904U 15049F 22325.20092169 .00007655 00000+0 36067-3 0 9996
L22 40904 97.4994 326.4154 0012820 175.5877 314.9680 15.19720895396656



Live tracking and technical data element details for KAITUO 1A (NORAD 40904). KAITUO 1A can be tracked NOW for your location showing map with azimuth and elevation plus other details from your city location.







IsCatalogInMostPopularTable: catalog: 40904, numindb: 489
Update: records affected: 1



GetName: 40904 KAITUO 1A

Hit Count: updated at: Mon, 28 Nov 2022 05:55:58 GMT